This demonstration page uses our WeatherBlox Daily Observations layout. Learn more.

Left ArrowRight Arrow

Hourly Observations for March 22, 2020

Temp ( °F °C ) Dew Point ( °F °C ) Humidity (%) Winds ( mph kmh ) Pressure ( in mb ) Visibility ( mi km ) Precip ( " mm )
12:15 am 00:15 Cloudy 32 undefined 27 -3 80 80 E 9 15 30.54 1034 10 16 N/A
12:16 am 00:16 Cloudy 32 undefined 27 -3 80 80 E 9 15 30.54 1034 10 16 N/A
12:35 am 00:35 Cloudy 32 undefined 27 -3 80 80 E 9 15 30.54 1034 10 16 N/A
12:55 am 00:55 Cloudy 30 -1 27 -3 86 86 ESE 7 11 30.54 1034 10 16 N/A
1:15 am 01:15 Cloudy 30 -1 27 -3 86 86 E 8 13 30.54 1034 10 16 N/A
1:35 am 01:35 Cloudy 30 -1 25 -4 80 80 E 8 13 30.54 1034 10 16 N/A
1:55 am 01:55 Cloudy 30 -1 25 -4 80 80 E 5 7 30.54 1034 10 16 N/A
2:15 am 02:15 Cloudy 30 -1 27 -3 86 86 E 10 17 30.54 1034 10 16 N/A
2:35 am 02:35 Cloudy 30 -1 27 -3 86 86 E 12 19 30.54 1034 10 16 N/A
2:55 am 02:55 Cloudy 30 -1 27 -3 86 86 E 8 13 30.54 1034 10 16 N/A
3:15 am 03:15 Cloudy 30 -1 27 -3 86 86 ENE 10 17 30.54 1034 10 16 N/A
3:35 am 03:35 Partly Cloudy 28 -2 27 -3 93 93 E 7 11 30.54 1034 10 16 N/A
3:55 am 03:55 Clear 28 -2 27 -3 93 93 ENE 7 11 30.53 1034 10 16 N/A
4:15 am 04:15 Clear 27 -3 27 -3 100 100 ENE 7 11 30.54 1034 10 16 N/A
4:35 am 04:35 Clear 27 -3 27 -3 100 100 ENE 6 9 30.54 1034 10 16 N/A
4:36 am 04:36 Clear 27 -3 27 -3 100 100 ENE 6 9 30.54 1034 10 16 N/A
4:55 am 04:55 Clear 27 -3 27 -3 100 100 E 6 9 30.54 1034 10 16 N/A
4:56 am 04:56 Clear 27 -3 27 -3 100 100 E 6 9 30.54 1034 10 16 N/A
5:15 am 05:15 Clear 27 -3 27 -3 100 100 ENE 9 15 30.54 1034 10 16 N/A
5:35 am 05:35 Clear 27 -3 27 -3 100 100 ENE 8 13 30.53 1034 10 16 N/A
5:36 am 05:36 Clear 27 -3 27 -3 100 100 E 8 13 30.53 1034 10 16 N/A
5:55 am 05:55 Clear 27 -3 27 -3 100 100 E 7 11 30.53 1034 10 16 N/A
5:56 am 05:56 Clear 27 -3 27 -3 100 100 E 7 11 30.53 1034 10 16 N/A
6:15 am 06:15 Clear 27 -3 27 -3 100 100 ENE 10 17 30.52 1033 10 16 N/A
6:35 am 06:35 Clear 27 -3 27 -3 100 100 E 9 15 30.52 1033 10 16 N/A
6:36 am 06:36 Clear 27 -3 27 -3 100 100 E 9 15 30.52 1033 10 16 N/A
6:55 am 06:55 Clear 27 -3 27 -3 100 100 E 7 11 30.54 1034 10 16 N/A
7:15 am 07:15 Clear 27 -3 25 -4 93 93 E 6 9 30.54 1034 10 16 N/A
7:36 am 07:36 Clear 25 -4 25 -4 100 100 ENE 6 9 30.55 1035 10 16 N/A
7:55 am 07:55 Sunny 25 -4 25 -4 100 100 ENE 5 7 30.55 1035 10 16 N/A
7:56 am 07:56 Sunny 25 -4 25 -4 100 100 ENE 5 7 30.55 1035 10 16 N/A
8:15 am 08:15 Sunny 27 -3 27 -3 100 100 ENE 5 7 30.55 1034 10 16 N/A
8:36 am 08:36 Sunny 28 -2 27 -3 93 93 ENE 7 11 30.53 1034 10 16 N/A
8:55 am 08:55 Sunny 28 -2 27 -3 93 93 E 13 20 30.52 1034 10 16 N/A
9:15 am 09:15 Mostly Cloudy 30 -1 27 -3 86 86 E 10 17 30.52 1034 10 16 N/A
9:35 am 09:35 Cloudy 30 -1 27 -3 86 86 E 9 15 30.52 1034 10 16 N/A
9:36 am 09:36 Cloudy 30 -1 27 -3 86 86 E 10 17 30.52 1034 10 16 N/A
9:55 am 09:55 Cloudy 30 -1 27 -3 86 86 ESE 12 19 30.52 1034 10 16 N/A
9:56 am 09:56 Cloudy 30 -1 27 -3 86 86 ESE 10 17 30.52 1034 10 16 N/A
10:15 am 10:15 Cloudy 32 undefined 27 -3 80 80 ESE 9 15 30.52 1033 10 16 N/A
10:16 am 10:16 Cloudy 32 undefined 27 -3 80 80 ESE 9 15 30.52 1033 10 16 N/A
10:35 am 10:35 Cloudy 32 undefined 28 -2 87 87 E 10 17 30.51 1033 10 16 N/A
10:55 am 10:55 Partly Cloudy 32 undefined 28 -2 87 87 ESE 10 17 30.51 1033 10 16 N/A
11:16 am 11:16 Sunny 34 1 28 -2 81 81 ESE 7 11 30.51 1033 10 16 N/A
11:35 am 11:35 Sunny 34 1 28 -2 81 81 ESE 8 13 30.50 1033 10 16 N/A
11:55 am 11:55 Mostly Cloudy 34 1 30 -1 87 87 ESE 8 13 30.47 1032 10 16 N/A
12:15 pm 12:15 Cloudy 36 2 30 -1 81 81 ESE 9 15 30.46 1031 10 16 N/A
12:35 pm 12:35 Mostly Cloudy 36 2 30 -1 81 81 ESE 7 11 30.46 1031 10 16 N/A
12:55 pm 12:55 Mostly Cloudy 36 2 30 -1 81 81 E 12 19 30.44 1031 10 16 N/A
1:15 pm 13:15 Cloudy 36 2 30 -1 81 81 ESE 10 17 30.43 1030 10 16 N/A
1:35 pm 13:35 Cloudy 37 3 32 undefined 81 81 ESE 10 17 30.41 1030 10 16 N/A
1:36 pm 13:36 Cloudy 37 3 32 undefined 81 81 ESE 9 15 30.41 1030 10 16 N/A
1:55 pm 13:55 Cloudy 36 2 32 undefined 87 87 E 7 11 30.41 1030 10 16 N/A
2:15 pm 14:15 Cloudy 37 3 32 undefined 81 81 ESE 9 15 30.39 1029 10 16 N/A
2:35 pm 14:35 Cloudy 37 3 32 undefined 81 81 E 8 13 30.38 1029 10 16 N/A
2:55 pm 14:55 Cloudy 36 2 32 undefined 87 87 E 13 20 30.36 1028 7 11 N/A
3:15 pm 15:15 Cloudy 34 1 34 1 100 100 E 7 11 30.37 1029 10 16 N/A
3:35 pm 15:35 Cloudy 36 2 36 2 100 100 N N/A 30.38 1029 10 16 N/A
3:36 pm 15:36 Cloudy 36 2 36 2 100 100 N N/A 30.38 1029 10 16 N/A
3:55 pm 15:55 Cloudy 36 2 36 2 100 100 N N/A 30.38 1029 7 11 N/A
3:56 pm 15:56 Cloudy 36 2 36 2 100 100 N N/A 30.38 1029 7 11 N/A
4:15 pm 16:15 Cloudy 36 2 36 2 100 100 E 7 11 30.36 1028 7 11 N/A
4:16 pm 16:16 Cloudy 36 2 36 2 100 100 E 7 11 30.35 1028 7 11 N/A
4:35 pm 16:35 Cloudy 34 1 34 1 100 100 E 5 7 30.35 1028 7 11 N/A
4:36 pm 16:36 Cloudy 34 1 34 1 100 100 E 6 9 30.35 1028 7 11 N/A
4:55 pm 16:55 Cloudy 34 1 34 1 100 100 E 6 9 30.34 1027 7 11 N/A
5:15 pm 17:15 Cloudy 34 1 34 1 100 100 SE 3 6 30.34 1027 7 11 N/A
5:16 pm 17:16 Cloudy 34 1 34 1 100 100 SE 3 6 30.34 1027 7 11 N/A
5:35 pm 17:35 Cloudy 34 1 34 1 100 100 E 5 7 30.33 1027 5 8 N/A
5:55 pm 17:55 Cloudy 34 1 34 1 100 100 E 7 11 30.30 1026 4 6 N/A
6:15 pm 18:15 Cloudy 34 1 34 1 100 100 ENE 8 13 30.28 1025 5 8 N/A
6:35 pm 18:35 Cloudy 34 1 34 1 100 100 E 9 15 30.27 1025 7 11 N/A
6:36 pm 18:36 Cloudy 34 1 34 1 100 100 E 8 13 30.27 1025 7 11 N/A
6:55 pm 18:55 Cloudy 34 1 34 1 100 100 E 8 13 30.28 1025 10 16 N/A
7:15 pm 19:15 Cloudy 36 2 36 2 100 100 ENE 8 13 30.27 1025 10 16 N/A
7:35 pm 19:35 Cloudy 36 2 36 2 100 100 E 8 13 30.27 1025 10 16 N/A
7:36 pm 19:36 Cloudy 36 2 36 2 100 100 E 8 13 30.28 1025 10 16 N/A
7:55 pm 19:55 Cloudy 36 2 36 2 100 100 E 6 9 30.28 1025 10 16 N/A
8:15 pm 20:15 Cloudy 36 2 36 2 100 100 ENE 7 11 30.25 1024 10 16 N/A
8:16 pm 20:16 Cloudy 36 2 36 2 100 100 ENE 7 11 30.25 1024 10 16 N/A
8:35 pm 20:35 Cloudy 36 2 36 2 100 100 E 8 13 30.27 1025 10 16 N/A
8:36 pm 20:36 Cloudy 36 2 36 2 100 100 E 8 13 30.27 1025 10 16 N/A
8:55 pm 20:55 Cloudy 36 2 36 2 100 100 E 3 6 30.27 1025 10 16 N/A
9:15 pm 21:15 Cloudy 36 2 36 2 100 100 E 7 11 30.26 1025 10 16 N/A
9:35 pm 21:35 Cloudy 36 2 36 2 100 100 E 3 6 30.25 1024 10 16 N/A
9:56 pm 21:56 Cloudy 34 1 34 1 100 100 ENE 5 7 30.24 1024 10 16 N/A
10:16 pm 22:16 Cloudy 34 1 34 1 100 100 E 5 7 30.23 1024 10 16 N/A
10:35 pm 22:35 Cloudy 34 1 34 1 100 100 E 5 7 30.23 1024 10 16 N/A
10:56 pm 22:56 Cloudy 36 2 36 2 100 100 E 3 6 30.22 1023 7 11 N/A
11:15 pm 23:15 Cloudy 36 2 36 2 100 100 N N/A 30.23 1024 10 16 N/A
11:35 pm 23:35 Cloudy 36 2 36 2 100 100 N N/A 30.23 1024 10 16 N/A
11:55 pm 23:55 Cloudy 36 2 36 2 100 100 N 3 6 30.22 1023 7 11 N/A
11:56 pm 23:56 Cloudy 36 2 36 2 100 100 N 3 6 30.22 1023 7 11 N/A

Powered by AerisWeather